Voltar ao catálogo

STARLINK-34565

AtivoComunicaçõesVLEO
NORAD 64686·PAYLOAD·🇺🇸 United States

Lançado Jun 28, 2025 de Cape Canaveral Space Force Station

Loading…

Próximas Passagens (próximas 24 horas)

TLE

AtualizadoSource: CelesTrak SupGP

Época: Sep 14, 2026, 21:20 UTC

1 64686C 25139Y   26257.88937500 -.00013850  00000+0 -40934-3 0  2570
2 64686  53.1597 324.0832 0001160  88.5286 132.7031 15.34386138    19

Acompanhe STARLINK-34565 em tempo real com AllMySat

Download on the App Store